Tracking 28766 objects as of 14-Apr-2024
HD Live streaming from Space Station
objects crossing your sky now

ONEWEB-0168

Track ONEWEB-0168 now!
10-day predictions
ONEWEB-0168 is classified as:


NORAD ID: 48068
Int'l Code: 2021-025AC
Perigee: 1,215.3 km
Apogee: 1,218.5 km
Inclination: 87.9 °
Period: 109.6 minutes
Semi major axis: 7587 km
RCS: Unknown
Launch date: March 25, 2021
Source: United States (US)
Launch site: VOSTOCHNY COSMODROME (VOSTO)
Your satellite tracking list
Your tracking list is empty




NASA's NSSDC Master Catalog

Two Line Element Set (TLE):
1 48068U 21025AC  24104.53359442 -.00000221  00000-0 -64046-3 0  9992
2 48068  87.8893 118.3903 0002079  92.2023 267.9344 13.13469021149247
Source of the keplerian elements: AFSPC